Satellite-Ground Cal/Val Site Overpasses Predictions

Prediction of Satellite NPP Overpassing Cal/Val Site: Antarctic Dome C

Ground Cal/Val Site Location: Latitude: -75.10, Longitude: 123.35; Satellite-Ground Site NADIR distance within 100 km.

Table of predicted overpasses for the next 14.0 days since TLE Epoch: 5/21/2021
Interval Starting Time Ending Time Minimum Distance Time Minimum Distance (km)
1 05/22/2021 14:41:54 05/22/2021 14:42:19 05/22/2021 14:42:06 51.15
2 05/23/2021 07:43:35 05/23/2021 07:43:56 05/23/2021 07:43:46 69.15
3 05/24/2021 07:24:43 05/24/2021 07:25:10 05/24/2021 07:24:57 38.82
4 05/26/2021 15:07:11 05/26/2021 15:07:19 05/26/2021 15:07:15 95.87
5 05/27/2021 14:48:12 05/27/2021 14:48:41 05/27/2021 14:48:26 15.59
6 05/29/2021 07:31:03 05/29/2021 07:31:32 05/29/2021 07:31:17 2.10
7 06/01/2021 14:54:32 06/01/2021 14:55:00 06/01/2021 14:54:46 21.41
8 06/02/2021 14:35:50 06/02/2021 14:36:05 06/02/2021 14:35:58 85.48
9 06/03/2021 07:37:24 06/03/2021 07:37:51 06/03/2021 07:37:37 34.52
